This is the latest recevied weather packets stored in our database for station/object K1BWE-1. If no packets are shown the sender has not sent any weather packets the latest 10 day(s).
| Time | Temp. | Humidity | Pressure | Rain* | Wind** | Luminosity | Snow |
|---|---|---|---|---|---|---|---|
| 1777842887 | 28.33° C | 26% | 1013.2 hPa | 0 mm | - | 184 W/m² | - |
| 1777842582 | 28.33° C | 27% | 1013.2 hPa | 0 mm | - | 196 W/m² | - |
| 1777842280 | 28.33° C | 26% | 1013.4 hPa | 0 mm | - | 212 W/m² | - |
| 1777841979 | 28.33° C | 25% | 1013.4 hPa | 0 mm | - | 212 W/m² | - |
| 1777841677 | 28.89° C | 24% | 1013.3 hPa | 0 mm | - | 242 W/m² | - |
| 1777841373 | 28.33° C | 25% | 1013.4 hPa | 0 mm | - | 276 W/m² | - |
| 1777841070 | 28.33° C | 25% | 1013.8 hPa | 0 mm | - | 304 W/m² | - |
| 1777840767 | 28.33° C | 24% | 1013.9 hPa | 0 mm | - | 290 W/m² | - |
| 1777840465 | 28.33° C | 25% | 1014 hPa | 0 mm | - | 273 W/m² | - |
| 1777840161 | 28.33° C | 26% | 1013.9 hPa | 0 mm | - | 256 W/m² | - |
| 1777839860 | 28.33° C | 25% | 1013.8 hPa | 0 mm | - | 293 W/m² | - |
| 1777839558 | 28.33° C | 25% | 1013.9 hPa | 0 mm | - | 268 W/m² | - |
| 1777839254 | 28.33° C | 26% | 1013.9 hPa | 0 mm | - | 270 W/m² | - |
| 1777838952 | 27.78° C | 27% | 1013.9 hPa | 0 mm | - | 257 W/m² | - |
| 1777838648 | 28.33° C | 26% | 1014 hPa | 0 mm | - | 248 W/m² | - |
| 1777838345 | 27.78° C | 26% | 1014 hPa | 0 mm | - | 252 W/m² | - |
| 1777838042 | 28.33° C | 26% | 1014.1 hPa | 0 mm | - | 271 W/m² | - |
| 1777837739 | 28.33° C | 25% | 1014 hPa | 0 mm | - | 285 W/m² | - |
| 1777837435 | 28.33° C | 26% | 1014.1 hPa | 0 mm | - | 278 W/m² | - |
| 1777837131 | 28.89° C | 27% | 1014.3 hPa | 0 mm | - | 291 W/m² | - |
| 1777836827 | 28.89° C | 25% | 1014.5 hPa | 0 mm | - | 349 W/m² | - |
| 1777836523 | 28.89° C | 25% | 1014.4 hPa | 0 mm | - | 389 W/m² | - |
| 1777836219 | 28.33° C | 24% | 1014.3 hPa | 0 mm | - | 366 W/m² | - |
| 1777835915 | 28.33° C | 26% | 1014.5 hPa | 0 mm | - | 340 W/m² | - |
| 1777835612 | 28.33° C | 26% | 1014.5 hPa | 0 mm | - | 300 W/m² | - |
* Rain latest hour (hover to see other rain measurements)
** Current wind speed in m/s (hover to see current wind gust speed)